Location: �perlecques
(50.8057°N, 2.1521°E)
Time: 23:30:54
(UTC+00:00)

Cosmos 1842 Rocket - Pass Details

Date: 09 April 2020
Orbit: 606 x 633 km, 82.5° (Epoch: 29 May)

Event Time Altitude Azimuth Distance (km) Brightness Sun altitude
Exits shadow 22:09:32 42° 24° (NNE) 874 4.5 -27.1°
Drops below altitude 10° 22:12:30 10° 14° (NNE) 1,972 6.7 -27.3°
Sets 22:14:44 0° 12° (NNE) 2,880 7.7 -27.5°
